Lid_Strength_Index
1 -0 -2 -1 -1 -1 -1 -1 -1 -1 -1 -1 -1 -1 -1 -1 -1 -1 -1 -1 -1 -1 -1 -1 -1 -1 -1 -1 -1 -1 -1 -1 -1 -1 -1 -1 -1 -1 -1 -1 -1 -1 -1
2 -0 -1 -1 -1 -1 -1 -1 -1 -1 -1 -1 -1 -1 -1 -1 -1 -1 -1 -1 -1 -1 -1 -1 -1 -1 -1 -1 -1 -1 -1 -1 -1 -1 -1 -1 -1 -1 -1 -1 -1 -1 -1
3 1 -1 -1 -1 -1 -1 -1 -1 -1 -1 -1 -1 -1 -1 -1 -1 -1 -1 -1 -1 -1 -1 -1 -1 -1 -1 -1 -1 -1 -1 -1 -1 -2 -2 1 0 -1 -1 -1 -1 -1 -1
2 1 -0 -1 -1 -1 -1 -1 -1 -1 -1 -1 -1 -1 -1 -1 -1 -1 -1 -1 -1 -1 -1 -1 -1 -1 -1 -1 -1 -1 -1 -1 -1 -2 0 0 1 -1 -1 -1 -1 -1 -1
4 3 1 -0 -0 -1 -1 -1 -1 -1 -1 -1 -1 -1 -1 -1 -1 -1 -1 -1 -1 -1 -1 -1 -1 -1 -1 -1 -1 -1 -1 -1 -1 -1 0 1 1 -0 -1 -1 -1 -1 -1
5 4 1 1 1 1 1 1 1 1 0 -0 -1 -1 -1 -1 -1 -1 -1 -1 -1 -1 -1 -1 -1 -1 -1 -1 -1 -1 -1 -1 -1 0 0 0 0 -1 -2 -2 -1 -1 -1
5 4 3 1 0 0 1 1 1 1 1 1 1 1 0 0 -1 -1 -1 -1 -1 -1 -1 -1 -1 -1 -1 -1 -1 -1 -1 -1 -0 1 1 0 0 -1 -2 -2 -2 -2 -1
5 4 3 -0 -1 -1 -0 -0 -0 0 -0 -0 0 -0 -0 -1 0 0 -1 -1 -1 -1 -1 -1 -1 -1 -1 -1 -1 -1 -1 -0 -0 0 0 0 -1 -1 -2 -2 -2 -1 -2
3 4 4 4 3 1 0 -0 -1 0 -0 -0 -0 -1 -1 -1 -1 -1 -1 -1 -1 -1 -1 -1 -1 -1 -1 -1 -2 -1 -1 -1 0 0 -0 0 -1 -2 -2 -2 -2 -2 -2
4 5 5 5 5 5 5 1 0 -0 -0 -0 -0 -0 0 1 -0 -0 -0 -0 -1 -2 -2 -1 -1 -1 -1 -2 -2 -1 -1 -0 0 0 -0 -0 -1 -2 -2 -2 -2 -2 -2
5 5 5 5 5 5 4 3 3 2 2 1 2 1 2 3 3 2 -0 -1 -2 -2 -2 -2 -1 -2 -2 -1 -1 -1 -0 0 0 0 -0 -1 -1 -2 -2 -2 -2 -2 -2
7 6 6 5 6 6 4 5 5 5 5 4 3 3 3 3 2 1 1 -0 -0 -1 -0 -1 -1 -1 -0 -0 0 -1 -0 -0 -1 0 -0 -1 -1 -2 -2 -2 -1 -2 -2
6 6 5 6 6 6 6 6 6 6 5 4 4 3 3 3 3 3 3 3 3 2 3 3 3 3 3 3 2 1 1 1 -0 -1 -1 -1 -1 -2 -2 -1 -1 -1 -2
6 6 6 6 6 6 6 6 6 5 5 4 4 4 4 4 4 4 3 3 4 3 4 4 3 3 3 2 2 2 2 1 1 0 0 -1 -1 -2 -2 -2 -1 -1 -1
6 6 7 6 7 6 6 6 5 5 5 5 4 4 4 4 4 4 4 4 4 3 3 3 3 2 2 2 2 1 1 1 1 0 0 -0 -1 -1 -1 -1 -2 -1 -1
6 7 6 6 7 6 6 6 5 5 5 5 5 4 4 4 5 4 4 4 4 3 3 3 3 2 2 1 2 1 1 2 1 1 1 -0 -1 -1 -1 -1 -2 -2 -2
6 7 7 7 6 7 6 6 5 5 4 5 5 5 5 5 4 5 4 4 4 3 4 4 4 2 2 3 4 3 2 3 2 1 1 0 -0 -1 -1 -2 -2 -2 -2
7 8 8 6 7 7 6 6 4 5 5 6 7 7 6 6 6 4 5 5 4 5 6 5 5 4 4 5 5 4 3 3 1 2 1 1 0 0 0 -1 -1 -2 -2
8 8 8 7 7 7 7 5 5 5 5 6 7 8 7 7 6 6 6 6 6 7 7 7 6 5 6 6 5 4 4 2 1 1 1 2 2 2 2 0 0 1 0
8 8 8 7 7 8 6 5 5 6 6 6 8 8 7 7 7 7 7 7 7 7 8 8 8 7 6 8 5 3 3 2 3 3 3 3 4 5 4 3 4 4 3
8 8 8 8 8 8 7 6 7 8 7 7 8 7 7 8 7 8 8 8 7 9 10 9 9 8 8 9 8 6 4 5 3 4 4 5 6 7 5 6 7 7 8
8 8 8 7 8 8 7 7 7 7 6 7 8 8 8 8 8 9 9 9 9 10 11 11 11 10 10 10 10 8 9 7 7 5 8 8 10 10 7 8 9 9 10
8 8 7 7 8 8 8 8 6 6 6 7 8 9 9 9 9 9 10 10 10 11 12 12 12 12 11 11 11 10 12 11 10 7 8 11 11 12 12 8 10 10 10
8 8 7 7 8 9 9 8 8 6 7 7 8 9 9 10 10 10 10 11 11 11 12 12 11 12 11 13 12 11 11 11 11 12 9 11 12 12 13 10 11 11 11
7 8 8 8 8 9 9 8 8 9 9 9 9 9 10 10 11 11 11 12 12 12 12 12 13 13 13 14 13 13 13 12 12 13 14 14 13 13 13 13 12 12 12
7 8 8 8 8 9 9 9 9 9 9 10 10 11 11 11 12 12 11 13 13 13 13 13 13 13 13 14 14 14 14 14 14 15 15 15 15 14 13 11 12 12 12